Regional Weather Roundup
Issued by NWS

Home | Current Version | Previous Version | Graphics & Text | Print | Product List | Glossary On
Versions: 1 2 3 4 5 6 7 8 9 10 11 12 13 14 15 16 17 18 19 20 21 22 23 24 25 26 27 28 29 30 31 32 33 34 35 36 37 38 39 40 41 42 43 44 45 46 47 48 49 50
000
ASUS43 KMKX 040200
RWRWI

WISCONSIN REGIONAL WEATHER ROUNDUP
NATIONAL WEATHER SERVICE MILWAUKEE/SULLIVAN WI
900 PM CDT MON AUG 03 2015

NOTE: "FAIR" INDICATES FEW OR NO CLOUDS BELOW 12,000 FEET WITH NO
SIGNIFICANT WEATHER AND/OR OBSTRUCTIONS TO VISIBILITY.

WIZ001-002-006>008-014>016-023>028-040300-
NORTHWEST WISCONSIN

CITY           SKY/WX    TMP DP  RH WIND       PRES   REMARKS
SUPERIOR ARPT  CLOUDY    67  53  61 NW12G17   29.87R
ASHLAND        CLOUDY    61  57  87 CALM      29.87R
HAYWARD        CLOUDY    67  54  63 CALM      29.88S
SIREN          CLOUDY    68  55  62 NW3       29.89S
CUMBERLAND     CLOUDY    63  54  72 W3        29.89S
RICE LAKE      MOCLDY    64  55  72 CALM      29.90S
CHETEK         MOCLDY    66  54  66 CALM      29.88S
LADYSMITH      CLOUDY    67  56  66 W3        29.90S
EAU CLAIRE     NOT AVBL
MENOMONIE      CLEAR     69  52  55 SW3       29.88S
NEW RICHMOND   MOCLDY    68  55  62 W5        29.89S
OSCEOLA        CLOUDY    68  55  62 W3        29.91S
$$

WIZ003>005-009-010-017-018-040300-
NORTH CENTRAL WISCONSIN

CITY           SKY/WX    TMP DP  RH WIND       PRES   REMARKS
MANITOWISH WTR LGT RAIN  58  58 100 N6        29.87R
ARBOR VITAE    MOCLDY    62  55  79 CALM      29.86S
WOODRUFF       MOCLDY    62  55  79 CALM      29.86S
RHINELANDER    MOCLDY    59  54  83 W3        29.88S
EAGLE RIVER    RAIN      62  51  66 W8        29.86R
LAND O LAKES   RAIN      60  55  81 NW9       29.88R
PHILLIPS       CLOUDY    63  56  77 CALM      29.87S
TOMAHAWK       CLOUDY    62  55  75 CALM      29.88S
MEDFORD        PTCLDY    62  54  76 CALM      29.89S
MERRILL        NOT AVBL
$$

WIZ029-030-035-036-043>047-040300-
CENTRAL WISCONSIN

CITY           SKY/WX    TMP DP  RH WIND       PRES   REMARKS
WAUSAU         MOCLDY    66  53  63 W7        29.87R
MOSINEE        PTCLDY    64  54  68 W6        29.89S
MARSHFIELD     PTCLDY    64  53  67 W3        29.89S
STEVENS POINT  CLOUDY    67  51  55 W5        29.89R
WAUPACA        CLEAR     70  52  53 NW6       29.87R
WAUTOMA        NOT AVBL
WISC RAPIDS    MOCLDY    67  52  58 NW3       29.89S
CAMP DOUGLAS   NOT AVBL
$$

WIZ011>013-019>022-031-037>040-048>050-040300-
NORTHEAST WISCONSIN

CITY           SKY/WX    TMP DP  RH WIND       PRES   REMARKS
ANTIGO         CLEAR     61  53  74 W5        29.88R
SHAWANO        CLOUDY    69  55  62 W3        29.86R
OCONTO         CLOUDY    65  59  80 CALM      29.83R
STURGEON BAY   MOCLDY    64  54  68 W3        29.86R
GREEN BAY      CLOUDY    66  57  72 NW5       29.85R
MANITOWOC      NOT AVBL
APPLETON       PTCLDY    68  48  49 NW10      29.87R
CLINTONVILLE   CLOUDY    68  54  60 NW5       29.86R
OSHKOSH        MOCLDY    69  54  58 NW6       29.86R
$$

WIZ032>034-041-042-053>061-040300-
SOUTHWEST WISCONSIN

CITY           SKY/WX    TMP DP  RH WIND       PRES   REMARKS
LA CROSSE      CLEAR     71  52  50 W6        29.89R
SPARTA         CLEAR     67  50  55 CALM      29.90S
VIROQUA        CLEAR     65  52  64 CALM      29.91S
BOSCOBEL       PTCLDY    66  53  63 CALM      29.90R
PRAIRIE DU CHI CLEAR     71  52  50 W3        29.89S
PLATTEVILLE    CLEAR     68  54  60 NW3       29.91S
$$

WIZ056-057-062-063-064-067-068-040300-
SOUTH CENTRAL WISCONSIN

CITY           SKY/WX    TMP DP  RH WIND       PRES   REMARKS
REEDSBURG      CLEAR     70  51  51 W3        29.89R
BARABOO/DELLS  CLEAR     69  48  46 W3        29.89S
LONE ROCK      NOT AVBL
MINERAL POINT  PTCLDY    68  54  60 W5        29.91S
MADISON        PTCLDY    70  53  54 CALM      29.88R
MIDDLETON      MOCLDY    69  52  55 NW5       29.89R
WATERTOWN      PTCLDY    70  54  57 W5        29.87R
MONROE         CLEAR     70  52  52 W6        29.90R
JANESVILLE     PTCLDY    70  54  56 CALM      29.88R
$$

WIZ051-052-058>065-066-070>072-040300-
SOUTHEAST WISCONSIN

CITY           SKY/WX    TMP DP  RH WIND       PRES   REMARKS
MILWAUKEE      PTCLDY    75  49  39 W7        29.86R
WAUKESHA       CLEAR     70  50  49 W9        29.88R
MILWAUKEE/TIMM PTCLDY    72  46  40 W6        29.86R
RACINE         CLEAR     70  52  52 SW3       29.88R
BURLINGTON     PTCLDY    64  55  73 CALM      29.87S
KENOSHA        CLEAR     66  55  67 W3        29.87R
FOND DU LAC    PTCLDY    69  55  60 W6        29.86R
SHEBOYGAN      PTCLDY    66  56  70 CALM      29.85R
WEST BEND      PTCLDY    68  52  56 CALM      29.86R
JUNEAU         PTCLDY    69  53  57 CALM      29.88R
$$

LSZ147-162-040300-
LAKE SUPERIOR

STATION/POSITION TIME  TEMP    WIND        PRES    WAVE
                       AIR SEA DIR/SP/G            HT/PER
                 (UTC) (F)     (DEG/KT/KT) (MB)    (FT/S)
W MID LAKE BUOY  0050   58 56  260/ 16/ 17 1008.7R   2/ 3
DEVILS ISLAND    0100   60     280/ 12/ 13 1010.4S
PORT WING        0100   64      CALM  /  3 1011.2R
SAXON HARBOR     0100   64        CALM     1010.5
$$

LMZ867-665-643>646-040300-
LAKE MICHIGAN

STATION/POSITION TIME  TEMP    WIND        PRES    WAVE
                       AIR SEA DIR/SP/G            HT/PER
                 (UTC) (F)     (DEG/KT/KT) (MB)    (FT/S)
CHAMBERS ISLAND  0100   69     300/  3/  7 1009.8R
S GREEN BAY BUOY 0100   69 70  310/  6/  6 1011.5R
N MID LAKE BUOY  0050   66 68  110/  2/  2 1009.0R   1/ 4
NORTHPORT PIER   0100   70     300/  9/ 12 1009.1R
SISTER BAY       0118   71     320/ 14/ 16   N/A
ALGOMA LAKESHORE 0012           CALM  /  3   N/A
KEWAUNEE LAKESHO 0100   70     290/  2/  3 1009.5R
SHEBOYGAN LAKESH 0100   75     320/  6/  7 1010.3R
PORT WASHINGTON  0140   74     300/  3/  4 1011.2R
ATWATER BUOY     0100   67 50  280/  8/ 10 1012.0R
MILWAUKEE LAKESH 0100   77     290/  8/ 11   N/A
KENOSHA   LAKESH 0100   77     280/  6/  8 1010.5R
$$

TC  - TEMPERATURE IN CELSIUS
VSB - VISIBILITY IN STATUTE MILES
WCI - WIND CHILL INDEX
HX  - HEAT INDEX



USA.gov is the U.S. government's official web portal to all federal, state and local government web resources and services.